TimeEDT,TemperatureF,Dew PointF,Humidity,Sea Level PressureIn,VisibilityMPH,Wind Direction,Wind SpeedMPH,Gust SpeedMPH,PrecipitationIn,Events,Conditions,WindDirDegrees,DateUTC
12:53 AM,78.1,75.0,90,29.98,10.0,ENE,4.6,-,N/A,,Clear,70,2012-10-06 04:53:00
1:53 AM,79.0,75.0,88,29.96,10.0,East,5.8,-,N/A,,Partly Cloudy,90,2012-10-06 05:53:00
2:53 AM,78.1,75.9,93,29.94,10.0,East,8.1,-,N/A,,Clear,100,2012-10-06 06:53:00
3:53 AM,79.0,75.9,90,29.92,10.0,ESE,6.9,-,N/A,,Partly Cloudy,110,2012-10-06 07:53:00
4:53 AM,78.1,75.0,90,29.92,10.0,ESE,6.9,-,N/A,,Partly Cloudy,110,2012-10-06 08:53:00
5:53 AM,78.1,75.0,90,29.92,10.0,SE,4.6,-,N/A,,Partly Cloudy,130,2012-10-06 09:53:00
6:43 AM,78.8,75.2,89,29.94,10.0,SE,5.8,-,N/A,,Mostly Cloudy,130,2012-10-06 10:43:00
6:50 AM,78.8,75.2,89,29.94,10.0,SE,4.6,-,N/A,,Scattered Clouds,130,2012-10-06 10:50:00
6:53 AM,78.1,75.0,90,29.94,10.0,SE,3.5,-,N/A,,Scattered Clouds,140,2012-10-06 10:53:00
7:53 AM,79.0,75.0,88,29.94,10.0,Calm,Calm,-,N/A,,Clear,0,2012-10-06 11:53:00
8:53 AM,81.0,75.0,82,29.95,10.0,ESE,6.9,-,N/A,,Scattered Clouds,110,2012-10-06 12:53:00
9:53 AM,82.0,73.9,76,29.96,10.0,Calm,Calm,-,N/A,,Scattered Clouds,0,2012-10-06 13:53:00
10:53 AM,82.0,73.9,76,29.96,10.0,SE,5.8,-,N/A,,Partly Cloudy,140,2012-10-06 14:53:00
11:53 AM,82.9,73.9,74,29.95,10.0,East,9.2,-,N/A,,Scattered Clouds,80,2012-10-06 15:53:00
12:53 PM,82.9,75.0,77,29.93,10.0,East,5.8,-,N/A,,Mostly Cloudy,90,2012-10-06 16:53:00
1:53 PM,82.9,73.0,72,29.91,10.0,East,8.1,-,N/A,,Mostly Cloudy,90,2012-10-06 17:53:00
2:53 PM,81.0,73.0,77,29.89,10.0,ESE,8.1,-,N/A,,Clear,110,2012-10-06 18:53:00
3:53 PM,81.0,75.0,82,29.87,10.0,East,6.9,-,N/A,,Clear,90,2012-10-06 19:53:00
4:53 PM,81.0,75.9,85,29.88,10.0,East,8.1,-,N/A,,Mostly Cloudy,80,2012-10-06 20:53:00
5:53 PM,80.1,75.0,85,29.88,10.0,ESE,6.9,-,N/A,,Partly Cloudy,110,2012-10-06 21:53:00
7:53 PM,77.0,75.9,96,29.91,10.0,North,3.5,-,0.02,Rain,Light Rain,10,2012-10-06 23:53:00
8:08 PM,75.2,73.4,94,29.92,10.0,ENE,11.5,17.3,0.01,Rain,Light Rain,70,2012-10-07 00:08:00
8:24 PM,73.4,73.4,100,29.92,1.8,NNE,15.0,20.7,0.24,Rain,Heavy Rain,30,2012-10-07 00:24:00
8:27 PM,73.4,73.4,100,29.92,2.0,NE,15.0,20.7,0.25,Rain,Heavy Rain,50,2012-10-07 00:27:00
8:36 PM,73.4,73.4,100,29.93,4.0,East,8.1,-,0.32,Rain,Heavy Rain,80,2012-10-07 00:36:00
8:53 PM,73.9,73.0,97,29.93,7.0,East,9.2,18.4,0.36,Rain,Light Rain,80,2012-10-07 00:53:00
9:53 PM,75.9,75.9,100,29.94,10.0,Calm,Calm,-,0.01,Rain,Light Rain,0,2012-10-07 01:53:00
10:53 PM,75.9,75.9,100,29.95,10.0,NNW,3.5,-,0.02,,Mostly Cloudy,340,2012-10-07 02:53:00
11:50 PM,75.2,75.2,100,29.95,3.0,South,4.6,-,0.10,Rain-Thunderstorm,Heavy Thunderstorms and Rain,180,2012-10-07 03:50:00